This demonstration page uses our WeatherBlox Daily Observations layout. Learn more.

Left ArrowRight Arrow

Hourly Observations for March 6, 2018

Temp ( °F °C ) Dew Point ( °F °C ) Humidity (%) Winds ( mph kmh ) Pressure ( in mb ) Visibility ( mi km ) Precip ( " mm )
12:53 am 00:53 Clear 38 3.3 31 -0.6 76 76 Calm 30.18 1022 10 16 0.00 0.00
1:53 am 01:53 Clear 38 3.3 31 -0.6 76 76 NNE 5 7 30.18 1022 10 16 0.00 0.00
2:53 am 02:53 Clear 35 1.7 30 -1.1 82 82 NNW 3 6 30.16 1021 10 16 0.00 0.00
3:53 am 03:53 Clear 36 2.2 31 -0.6 82 82 NW 3 6 30.15 1021 10 16 0.00 0.00
4:53 am 04:53 Clear 34 1.1 30 -1.1 85 85 Calm 30.15 1021 10 16 0.00 0.00
5:53 am 05:53 Clear 34 1.1 31 -0.6 89 89 Calm 30.16 1021 10 16 0.00 0.00
6:53 am 06:53 Sunny 34 1.1 31 -0.6 89 89 Calm 30.16 1022 10 16 0.00 0.00
7:53 am 07:53 Sunny 38 3.3 33 0.6 83 83 Calm 30.18 1022 10 16 0.00 0.00
8:53 am 08:53 Sunny 46 7.8 35 1.7 66 66 Calm 30.18 1022 10 16 0.00 0.00
9:53 am 09:53 Sunny 52 11.1 33 0.6 49 49 Calm 30.18 1022 10 16 0.00 0.00
10:53 am 10:53 Sunny 57 13.9 33 0.6 41 41 ESE 5 7 30.17 1022 10 16 0.00 0.00
11:53 am 11:53 Sunny 60 15.6 31 -0.6 33 33 E 5 7 30.15 1021 10 16 0.00 0.00
12:53 pm 12:53 Sunny 63 17.2 32 0 31 31 ENE 5 7 30.12 1020 10 16 0.00 0.00
1:53 pm 13:53 Sunny 65 18.3 32 0 29 29 VRB 6 9 30.09 1019 10 16 0.00 0.00
2:53 pm 14:53 Sunny 66 18.9 28 -2.2 24 24 VRB 3 6 30.06 1018 10 16 0.00 0.00
3:53 pm 15:53 Sunny 68 20 24 -4.4 19 19 Calm 30.05 1018 10 16 0.00 0.00
4:53 pm 16:53 Sunny 68 20 23 -5 18 18 Calm 30.04 1017 10 16 0.00 0.00
5:53 pm 17:53 Sunny 62 16.7 28 -2.2 28 28 Calm 30.04 1017 10 16 0.00 0.00
6:53 pm 18:53 Clear 58 14.4 30 -1.1 35 35 Calm 30.05 1018 10 16 0.00 0.00
7:53 pm 19:53 Clear 52 11.1 30 -1.1 43 43 N 3 6 30.07 1018 10 16 0.00 0.00
8:53 pm 20:53 Clear 48 8.9 33 0.6 56 56 Calm 30.07 1018 10 16 0.00 0.00
9:53 pm 21:53 Clear 46 7.8 34 1.1 63 63 N 5 7 30.07 1018 10 16 0.00 0.00
10:53 pm 22:53 Clear 45 7.2 35 1.7 68 68 Calm 30.07 1018 10 16 0.00 0.00
11:53 pm 23:53 Clear 46 7.8 35 1.7 66 66 NNW 6 9 30.06 1018 10 16 0.00 0.00

Powered by AerisWeather